Regional Weather Roundup
Issued by NWS

Home | Current Version | Previous Version | Graphics & Text | Print | Product List | Glossary On
Versions: 1 2 3 4 5 6 7 8 9 10 11 12 13 14 15 16 17 18 19 20 21 22 23 24 25 26 27 28 29 30 31 32 33 34 35 36 37 38 39 40 41 42 43 44 45 46 47 48 49 50
000
ASUS43 KBIS 280010
RWRND

NORTH DAKOTA REGIONAL WEATHER ROUNDUP
NATIONAL WEATHER SERVICE BISMARCK ND
600 PM CST FRI FEB 27 2015

NOTE: "FAIR" INDICATES FEW OR NO CLOUDS BELOW 12,000 FEET WITH NO
SIGNIFICANT WEATHER AND/OR OBSTRUCTIONS TO VISIBILITY.


NDZ001>003-009>011-017-280100-
NORTHWEST NORTH DAKOTA

CITY           SKY/WX    TMP DP  RH WIND       PRES   REMARKS
WILLISTON      PTCLDY    25   5  42 S6        30.04F WCI  18
6HR MIN TEMP:  12; 6HR MAX TEMP:  26;

MINOT          FAIR      16   3  56 SE8       30.15S WCI   5
MINOT AFB      CLEAR     10   2  70 S10       30.15F WCI  -3
$$

NDZ018>021-031>035-040>046-280100-
SOUTHWEST NORTH DAKOTA

CITY           SKY/WX    TMP DP  RH WIND       PRES   REMARKS
BISMARCK       CLEAR     17   5  59 SE14      30.20F WCI   3
6HR MIN TEMP:  15; 6HR MAX TEMP:  20;

DICKINSON      PTCLDY    23   6  48 S12       30.01F WCI  12
GARRISON         N/A     15   5  64 S12       30.13F WCI   2
6HR MIN TEMP:   8; 6HR MAX TEMP:  19;

HETTINGER ARPT PTCLDY    23   6  48 S13       30.04S WCI  11
$$

NDZ004>008-012>016-024-026-027-054-280100-
NORTHEAST NORTH DAKOTA

CITY           SKY/WX    TMP DP  RH WIND       PRES   REMARKS
GRAND FORKS    PTCLDY    13   2  61 S9        30.35F WCI   1
GRND FRKS AFB  CLEAR     15   1  55 S9        30.34F WCI   3
DEVILS LAKE    CLEAR     10   0  61 S9        30.25F WCI  -2
$$

NDZ022-023-025-028>030-036>039-047>053-280100-
SOUTHEAST NORTH DAKOTA

CITY           SKY/WX    TMP DP  RH WIND       PRES   REMARKS
FARGO          CLEAR     14  -1  51 S12       30.39F WCI   0
6HR MIN TEMP:   9; 6HR MAX TEMP:  18;

JAMESTOWN      CLEAR     11   0  61 S9        30.27F WCI  -2
$$




USA.gov is the U.S. government's official web portal to all federal, state and local government web resources and services.